User: anonymous
Location: Unspecified
(0.0000°N, 0.0000°E)
Time: 08:25:18
(UTC+02:00)
Language:

ATLAS 2AS CENTAUR R/B - Orbit

View from above orbital plane
View from above orbital plane
View from above satellite
View from above satellite

Ground track
Ground track

The orbit data is extracted from the following two-line orbital elements,

1 28096U 03054B   14250.72544591 0.00000000  00000-0  00000-0 0    09
2 28096  63.6690  99.2433 0250000 295.2296  64.7704 13.40747488    03
Epoch (UTC): 07 September 2014 17:24:38
Eccentricity: 0.0250000
inclination: 63.6690°
perigee height: 919 km
apogee height: 1293 km
right ascension of ascending node: 99.2433°
argument of perigee: 295.2296°
revolutions per day: 13.40747488
mean anomaly at epoch: 64.7704°
orbit number at epoch: 0

The dashed part of the orbit path shows where the satellite is in the earth's shadow,  

DLR